Leadville, CO

1:49 AM MST on December 04, 2016 (GMT -0700)
Lake County

Weather History for KLXV - August, 2012

Change the Weather History Date:

Saturday, August 18, 2012

  Actual Average Record
Temperature  
Mean Temperature 53 °F -  
Max Temperature 71 °F 67 °F 79 °F (1986)
Min Temperature 35 °F 38 °F 30 °F (1987)
Degree Days  
Heating Degree Days 12 13  
Month to date heating degree days 183 207  
Since 1 June heating degree days 754 1023  
Since 1 July heating degree days 424 543  
Cooling Degree Days 0 0  
Month to date cooling degree days 0 0  
Year to date cooling degree days 0 0  
Since 1 June cooling degree days 0 0  
Growing Degree Days 3 (Base 50)    
Moisture  
Dew Point 32 °F    
Average Humidity 54    
Maximum Humidity 92    
Minimum Humidity 16    
Precipitation  
Precipitation 0.00 in 0.06 in 0.40 in (1990)
Month to date precipitation 1.44 1.23  
Year to date precipitation 7.76 8.15  
Snow  
Snow 0.00 in - - ()
Month to date snowfall 0.0  
Since 1 June snowfall 0.0  
Snow Depth 0.00 in    
Sea Level Pressure  
Sea Level Pressure 29.96 in    
Wind  
Wind Speed 5 mph (North)    
Max Wind Speed 22 mph    
Max Gust Speed 29 mph    
Visibility 10 miles    
Events      
T = Trace of Precipitation, MM = Missing Value Source: NWS Daily Summary

Daily Weather History Graph

Daily Weather History Graph

Search for Another Location

Airport or City:

Trip Planner

Search our weather history database for the weather conditions in past years. The results will help you decide how hot, cold, wet, or windy it might be!

Date:

Astronomy

Aug. 18, 2012 Rise Set
Actual Time 6:21 AM MDT 7:55 PM MDT
Civil Twilight 5:53 AM MDT 8:23 PM MDT
Nautical Twilight 5:18 AM MDT 8:58 PM MDT
Astronomical Twilight 4:42 AM MDT 9:34 PM MDT
Moon 7:31 AM MDT (8/18) 8:14 PM MDT (8/18)
Length of Visible Light 14h 30m
Length of Day
13h 34m
New Moon, 1% of the Moon is Illuminated
Aug 18
New Moon
Aug 24
First Quarter
Aug 31
Full
Sep 8
Last Quarter
Sep 15
New

Hourly Weather History & Observations

Time (MDT) Temp. Windchill Dew Point Humidity Pressure Visibility Wind Dir Wind Speed Gust Speed Precip Events Conditions
12:53 AM 42.1 °F 39.2 °F 37.9 °F 85% 29.99 in 10.0 mi North 4.6 mph - N/A   Partly Cloudy
1:53 AM 39.0 °F 36.8 °F 36.0 °F 89% 29.98 in 10.0 mi NE 3.5 mph - N/A   Scattered Clouds
2:53 AM 37.0 °F - 36.0 °F 96% 29.99 in 10.0 mi Calm Calm - N/A   Scattered Clouds
3:53 AM 39.0 °F - 35.1 °F 86% 29.96 in 10.0 mi Calm Calm - N/A   Clear
4:53 AM 35.1 °F - 33.1 °F 92% 29.98 in 10.0 mi Calm Calm - N/A   Clear
5:53 AM 39.0 °F - 35.1 °F 86% 30.06 in 10.0 mi Calm Calm - N/A   Clear
6:53 AM 37.9 °F 34.4 °F 34.0 °F 86% 30.02 in 10.0 mi East 4.6 mph - N/A   Clear
7:53 AM 45.0 °F 43.5 °F 39.9 °F 82% 30.03 in 10.0 mi SW 3.5 mph - N/A   Clear
8:53 AM 50.0 °F - 39.9 °F 68% 30.01 in 10.0 mi Calm Calm - N/A   Clear
9:53 AM 57.9 °F - 36.0 °F 44% 29.98 in 10.0 mi Calm Calm - N/A   Clear
10:53 AM 63.0 °F - 34.0 °F 34% 29.96 in 10.0 mi Variable 6.9 mph - N/A   Partly Cloudy
11:53 AM 64.9 °F - 28.9 °F 26% 29.95 in 10.0 mi NNW 3.5 mph - N/A   Clear
12:53 PM 66.9 °F - 26.1 °F 21% 29.92 in 10.0 mi North 9.2 mph 24.2 mph N/A   Partly Cloudy
1:53 PM 69.1 °F - 25.0 °F 19% 29.93 in 10.0 mi North 11.5 mph 23.0 mph N/A   Scattered Clouds
2:53 PM 69.1 °F - 23.0 °F 18% 29.93 in 10.0 mi WNW 17.3 mph 28.8 mph N/A   Partly Cloudy
3:53 PM 71.1 °F - 23.0 °F 16% 29.89 in 10.0 mi NW 9.2 mph 17.3 mph N/A   Clear
4:53 PM 70.0 °F - 21.9 °F 16% 29.92 in 10.0 mi NNW 12.7 mph 21.9 mph N/A   Clear
5:53 PM 68.0 °F - 23.0 °F 18% 29.90 in 10.0 mi North 8.1 mph - N/A   Scattered Clouds
6:53 PM 66.0 °F - 25.0 °F 21% 29.93 in 10.0 mi North 11.5 mph - N/A   Scattered Clouds
7:53 PM 63.0 °F - 23.0 °F 22% 29.91 in 10.0 mi NNE 8.1 mph - N/A   Overcast
8:53 PM 57.9 °F - 36.0 °F 44% 29.94 in 10.0 mi SSE 4.6 mph - N/A   Overcast
9:53 PM 54.0 °F - 35.1 °F 49% 29.94 in 10.0 mi South 5.8 mph - N/A   Clear
10:53 PM 46.9 °F - 34.0 °F 61% 29.98 in 10.0 mi Calm Calm - N/A   Clear
11:53 PM 46.0 °F - 35.1 °F 66% 29.97 in 10.0 mi Calm Calm - N/A   Clear